Карточка аэропорта UUYY

Внимание!
Информация на этой странице в стадии наполнения.
Если вы не увидели какой-то информации, или заметили неточность - пожалуйста сообщите нам!
Спасибо!
Команда XR-STAFF
Название аэропортаСыктывкар
Название аэропорта (англ.)Syktyvkar
Превышение341 ft. (103.9 m.)
Координаты61°38.502', 50°50.298'
Высота перехода700
Эшелон переходаQFE>760: FL40; 760>QFE>733: FL50; 733 >QFE :FL60;
Коды ответчика3130-3134, 5752-5757, 5770-5777, 6701-6717
Зона ОрВДСанкт-Петербург РПИ (ULLL)
Данные METARUUYY 160730Z 02003MPS 340V050 9999 BKN020CB 14/08 Q0996 R36/19//55 NOSIG RMK QFE738/0984
Проноз погоды (TAF)UUYY 160500Z 1606/1706 04003G10MPS 9999 BKN020CB TEMPO 1607/1618 02006G14MPS 6000 -TSRA FEW007 BKN016CB
NOTAMshow/hide NOTAM
AWOS   TABLE

Информация о ВПП

ВПП Длина ВПП (м.) Покрытие Курс ВПП Частота ILS
012500Асфальтобетон6108.3
192500Асфальтобетон186111.7

Диспетчерские позиции

Позывной Наименование органа УВД Частота
UUYY_TWRСивкар-Старт124.600
UUYY_R_APPСивкар-Круг124.600



Спутниковое изображение